Погода Костанай

Погода Костанай : погода сейчас, прогноз погоды и архив. Всё, что Вы хотите узнать о погоде Костанай!

Хотите узнать прогноз погоды в Костанае? Тогда Вам сюда: Погода в Костанае

Поиск расширенной информации на нашем сайте:

Другие новости

Новости СМИ2

Главная страница сайта

Новости сайта

03.07.2017

Напоминаем, что на нашем специализированном сайте Метеоцентр.Азия вы можете получить высокодетализированные автоматические прогнозы погоды по пунктам России, СНГ и мира в авиационном формате (включающие направление и скорость ветра, видимость, явления погоды, количество и форму облачности, нижнюю и верхнюю границу облачности).


Погода Костанай - сегодня

Время (UTC), дата Ветер
(°,м/с) 
Видим.   Явления Облачность Т
(°С)
Тd
(°С)
f(%) Тe
(°С)
Pmin
(гПа)
dP
(гПа)
Po
(мм)
O2
(г/м3)
Тmin Tmax R s Состояние
почвы
12 15.04.18 230 (ЮЗ) 20000 м    3/0 верхняя 
[Ci fib]
+12.3 +1.5 48 +11  1012.7  -3  746  287           
15 15.04.18 230 (ЮЗ) 20000 м    6/0 верхняя 
[Ci]
+10.4 +0.6 51 +11  1011.2  -1.6  745  289    +13       
18 15.04.18 250 (З) н/о    4/0 верхняя 
[Ci fib]
+7 -0.5 59 +8  1011.3  -0.2  745  293    +13       
21 15.04.18 270 (З) н/о    3/0 верхняя 
[Ci fib]
+4.1 -2.1 64 +3  1010.5  -0.8  744  296           
00 16.04.18 270 (З) н/о    6/0 средняя 
[Ac trans]
+3 -2.8 66 +2  1010.2  -0.5  744  297           
06 16.04.18 270 (З) 20000 м    3/0 средняя 
[Ac trans]
+8.4 -0.5 53 +7  1011.1  0.9  744  291  +1.7         
09 16.04.18 270 (З) 20000 м    8/5 1000 м верхняя 
[Cu med, cong|Ci fib]
+11.4 -0.7 43 +10  1010.5  -0.2  744  288           
12 16.04.18 270 (З) 20000 м    4/3 600 м верхняя 
[Cu Sc|Ci fib]
+11 -0.5 45 +10  1011.3  0.6  745  288           
15 16.04.18 290 (З) 20000 м    4/0 средняя, верхняя 
[Ac lent|Ci fib]
+7.3 -2.5 50 +6  1012.2  0.6  745  293    +12.3       
18 16.04.18 340 (С) н/о    ясно 
+0.4 -6.6 59 1015.1  2.5  747  301    +12.3       
00 17.04.18 090 (В) н/о    ясно 
-2 -7.4 66 -5  1017.5  0.7  749  305           
06 17.04.18 140 (ЮВ) 20000 м    9/3 1000 м верхняя 
[Cu hum|Ci]
+6.2 -2.7 53 +7  1018.7  0.8  750  296  -2         
09 17.04.18 090 (В) 20000 м    9/4 600 м верхняя 
[Cu hum|Ci]
+7.7 -4.4 42 +7  1018.3  -0.3  750  294           
12 17.04.18 360 (С) 20000 м    9/0 верхняя 
[Ci]
+7.9 -5.4 38 +9  1018.5  0.2  750  294           
15 17.04.18 360 (С) 20000 м    9/0 средняя 
[Ac trans]
+5.4 -5 47 +6  1019  0.3  750  297    +9.1       
18 17.04.18 090 (В) н/о    10/0 средняя 
[As op]
+2.6 -5.6 55 +1  1019.3  0.1  750  300    +9.1       
21 17.04.18 090 (В) н/о    4/0 средняя 
[Ac trans]
+1.7 -4.9 62 1019.2  -0.1  750  301           
00 18.04.18 090 (В) н/о    9/0 средняя 
[Ac trans]
+1.3 -4.6 65 1019  -0.3  750  301           
09 18.04.18 070 (В) 10 км  слаб. ливневой дождь  10/10 600 м кучево-дожд. 
[Cb cap]
+3.5 -2.8 63 +1  1019.5  1.3  751  299           
18 18.04.18 360 (С) н/о    ясно 
-2.7 -7.8 68 -2  1022.4  0.8  752  307    -6.4  0.0     
21 18.04.18 360 (С) н/о    ясно 
-4.7 -9.1 71 -4  1022.7  0.2  752  309           
00 19.04.18 тихо ()   н/о  переохл. туман  ясно 
-4 -5.2 91 -4  1021.5  -1  752  308           
09 19.04.18 160 (Ю) 20000 м    6/0 средняя, верхняя 
[Ac lent|Ci fib]
+10.4 +3.8 64 +9  1016.4  -2.3  749  290           
12 19.04.18 160 (Ю) 20000 м    6/0 средняя 
[Ac trans]
+12.1 +3.6 56 +11  1013.5  -2.7  746  287           
15 19.04.18 200 (Ю) 20000 м    8/0 средняя 
[Ac trans]
+8.2 +1.3 62 +7  1013.2  -0.6  746  292    +13       
Время (UTC), дата Ветер
(°,м/с) 
Видим.   Явления Облачность Т
(°С)
Тd
(°С)
f(%) Тe
(°С)
Pmin
(гПа)
dP
(гПа)
Po
(мм)
O2
(г/м3)
Тmin Tmax R s Состояние
почвы

Для получения пояснительной информации подведите курсор к названию столбца.

ПОГОДА Костанай - архив

Всё, что Вы хотите узнать о погоде Костанай - удобно и подробно!

Выберите нужную дату (начиная с 1 января 2015* года) и нажмите кнопку "Найти".
Будут отображены архивные сводки погоды по пункту Костанай, начиная с указанной даты.


Отображать данные в формате CSV (для использования в таблицах Excel)


Внимание! Наш архив погоды предназначен исключительно для личного некоммерческого использования в познавательных целях. Если Вам необходимы официальные справки о состоянии погоды (для производственных, юридических, коммерческих и т.п. целей), обращайтесь в органы Росгидромета.

*Примечание: данная дата относится к архиву по метеостанциям СССР (Россия, СНГ, Балтия).
Архив по метеостанциям Зарубежной Европы и Азии (кроме Китая) хранится 10 дней, по другим регионам земного шара (Китай, Африка, Америка, Австралия, Океания) - 1 день.

Костанай - район местоположения метеостанции


Название, широта, долгота, высота метеостанции:
Костанай (город) 53.2°ш. 63.6°д. 156 м над ур. моря [Казахстан]

Дополнительная информация

В oтличие oт бoльшинства пoгoдных сайтoв мы публикуем пoдрoбную метеoинфoрмацию в детальнoм прoфессиoнальнoм фoрмате.

Характеристики температуры и влажнoсти вoздуха измеряются на высoте 2 м в тени вдали oт зданий и деревьев.
Скoрoсть ветра измеряется на высoте 10 м (на урoвне рoста челoвека скoрoсть ветра ниже в 1.5-2 раза). Если метеoстанция нахoдится в гoрoде или в лесу, тo скoрoсть ветра занижена на 2-4 м/с пo сравнению с oткрытым местoм. Скoрoсть ветра над акватoриями крупных рек и oзёр, а также на вершинах хoлмoв на 2-5 м/с выше, чем в oбычных услoвиях.
Атмoсфернoе давление в разных тoчках местнoсти мoжет значительнo oтличаться oт давления на метеoстанции, в зависимoсти oт услoвий рельефа (при пoдъёме на 10 м давление пoнижается примернo на 1 мм рт.ст.).